Location: ???????
(56.4388°N, 29.6592°E)
Time: 03:49:23
(UTC+00:00)

Daily predictions for brighter satellites

Satellite Brightness Start Highest point End
(mag) Time Altitude Azimuth Time Altitude Azimuth Time Altitude Azimuth
ADEOS II 4.0 00:05:12 10° NNE 00:07:35 26° NE 00:07:35 26° NE
Cosmos 2219 Rocket 4.2 00:15:18 21° N 00:15:18 21° N 00:18:24 10° NNE
Resurs 1-4 Rocket 4.1 00:16:50 10° NNE 00:18:51 24° NNE 00:18:51 24° NNE
Cosmos 2322 Rocket 4.3 00:28:58 18° N 00:30:09 19° N 00:34:11 10° NE
CZ-2D R/B 4.0 00:28:56 10° NNE 00:30:54 23° N 00:30:54 23° N
USA 234 3.4 00:47:59 10° ENE 00:53:54 62° SE 00:53:54 62° SE
IDEFIX/ARIANE 42P 3.5 00:50:41 10° NNE 00:54:58 45° ENE 00:54:58 45° ENE
CZ-3B R/B 3.5 00:57:50 66° SSE 00:57:50 66° SSE 01:14:15 10° ESE
SL-16 R/B 4.2 01:02:51 16° NNW 01:05:35 22° NNE 01:10:00 10° ENE
Cosmos 1656 4.3 01:08:21 52° ESE 01:08:21 52° ESE 01:12:46 10° SE
Cosmos 1634 Rocket 4.0 01:00:48 10° N 01:07:02 77° ENE 01:07:02 77° ENE
Cosmos 2333 Rocket 4.1 01:08:53 18° NNW 01:09:58 19° N 01:14:00 10° NE
ADEOS Rocket 3.4 01:04:49 10° SE 01:10:07 54° ENE 01:15:41 10° NNW
Cosmos 2237 Rocket 3.9 01:21:23 21° NNW 01:21:31 21° NNW 01:25:47 10° NNE
Meteor 1-21 4.4 01:21:49 66° ESE 01:22:04 67° E 01:27:39 10° NNE
Cosmos 1697 Rocket 3.2 01:22:07 37° NNW 01:24:09 57° NE 01:29:44 10° SE
Cosmos 2360 Rocket 4.3 01:29:50 14° NNW 01:32:50 21° NNE 01:37:01 10° ENE
Cosmos 1943 3.6 01:36:03 49° NNW 01:36:03 49° NNW 01:40:55 10° NNE
MSX 3.9 01:36:26 10° NNE 01:42:13 76° ESE 01:43:48 49° S
IRS-1C 4.4 01:39:31 10° NNE 01:43:56 53° NNW 01:43:56 53° NNW
Cosmos 1980 Rocket 3.0 01:41:57 19° NNW 01:45:51 50° NE 01:51:18 10° ESE
SL-16 R/B 3.6 01:46:11 25° NNW 01:46:21 25° NNW 01:50:59 10° NNE
Cosmos 44 Rocket 4.4 01:50:26 35° SSE 01:50:26 35° SSE 01:53:32 10° SSE
ADEOS II 3.1 01:45:06 10° N 01:48:31 32° NNW 01:48:31 32° NNW
CENTAUR R/B 3.6 01:48:26 23° S 01:51:55 42° ESE 01:58:38 10° NE
Cosmos 1867 3.8 01:54:23 55° NW 01:54:33 55° NNW 01:59:58 10° NE
Cosmos 2360 4.4 01:52:46 24° NNW 01:56:21 72° NE 02:02:02 10° SE
ARIANE 5 R/B 2.7 01:51:38 10° NNE 01:55:49 53° NNW 01:55:49 53° NNW
PSLV R/B 4.4 01:53:04 10° NNE 01:57:14 48° E 01:59:15 27° SSE
CZ-4B R/B 2.7 01:54:14 10° SE 01:57:10 40° E 01:57:10 40° E
Tsikada Rocket 3.9 01:58:06 58° W 01:58:35 60° WNW 02:04:45 10° N
Cosmos 2219 Rocket 4.2 01:57:01 13° NNW 02:00:02 19° N 02:04:02 10° NE
Resurs 1-4 Rocket 3.9 01:57:30 10° N 01:59:56 18° NNW 01:59:56 18° NNW
CZ-2D R/B 4.3 01:59:31 10° N 02:02:45 44° NNW 02:02:45 44° NNW
Cosmos 967 Rocket 4.3 02:05:10 34° NW 02:08:10 86° SW 02:14:28 10° SE
Cosmos 1975 Rocket 4.0 02:10:49 34° NNW 02:10:49 34° NNW 02:13:35 10° N
Cosmos 2180 Rocket 4.4 02:05:31 10° NNW 02:11:50 78° W 02:18:03 10° S
Cosmos 2278 3.9 02:07:24 15° NNW 02:12:07 69° NE 02:17:46 10° SE
CZ-2D R/B 3.9 02:10:01 10° N 02:12:13 16° NNW 02:12:13 16° NNW
ERS-2 4.2 02:11:53 10° SSE 02:12:56 18° SSE 02:12:56 18° SSE
Cosmos 2322 Rocket 3.7 02:10:51 10° NNW 02:15:59 32° NNE 02:21:04 10° E
ALOS 3.7 02:12:46 10° NNE 02:17:08 37° E 02:21:29 10° SSE
KORONAS-FOTON 4.4 02:16:32 24° S 02:18:44 58° E 02:22:35 10° NNE
SAR-Lupe-4 4.1 02:18:37 10° SSE 02:22:08 57° ENE 02:25:41 10° N
USA 238 DEB 3.8 02:19:35 29° SW 02:23:13 74° SE 02:30:14 10° NE
USA 238 3.8 02:19:40 29° SW 02:23:19 73° SE 02:30:20 10° NE
CZ-2C R/B 2.4 02:18:46 10° NNE 02:23:52 82° ESE 02:27:56 15° SSW
CZ-2C R/B 3.2 02:20:35 10° N 02:23:59 50° NW 02:23:59 50° NW
Cosmos 1726 Rocket 4.3 02:22:42 10° N 02:27:05 54° ENE 02:31:28 10° SSE
NOSS 3-2 (A) 3.5 02:24:30 33° SW 02:27:24 80° SE 02:34:20 10° NE
PAYLOAD A 3.9 02:23:05 10° NNE 02:28:08 86° WNW 02:32:12 17° SSW
Cosmos 1300 3.4 02:25:00 10° N 02:28:46 53° ENE 02:32:31 10° SSE
Cosmos 1833 Rocket 3.9 02:24:58 10° S 02:30:13 41° ESE 02:35:29 10° NE
In-Cosmos 22 4.0 02:27:41 19° SSW 02:31:40 81° WNW 02:37:11 10° NNE
Spot 4 Rocket 4.3 02:27:34 10° N 02:32:29 46° WNW 02:33:20 42° W
Cosmos 1302 Rocket 4.2 02:31:42 42° W 02:32:32 46° WSW 02:37:34 10° S
GP-B 3.1 02:33:18 52° W 02:33:34 53° W 02:37:57 10° N
Lacrosse 4 Rocket 2.3 02:31:40 20° S 02:34:07 45° ESE 02:38:01 10° NE
Abrixas rocket 4.5 02:35:41 14° SSE 02:35:41 14° SSE 02:36:29 10° SSE
Cosmos 2369 3.6 02:30:59 18° NW 02:35:11 68° WSW 02:40:48 10° SSE
IDEFIX/ARIANE 42P 3.1 02:30:29 10° N 02:35:18 38° WNW 02:35:46 37° WNW
Cosmos 1048 Rocket 4.2 02:34:50 41° WSW 02:36:20 55° NW 02:41:39 10° NNE
USA 234 3.2 02:31:12 10° E 02:37:47 87° N 02:41:15 31° W
ATLAS 3B R/B 4.3 02:32:32 10° S 02:38:10 31° ESE 02:43:53 10° ENE
Cosmos 1025 Rocket 3.0 02:37:27 45° SW 02:38:32 59° WNW 02:42:55 10° N
Cosmos 1484 Rocket 3.6 02:35:17 10° NNE 02:39:07 51° E 02:42:52 10° S
Cosmos 1269 Rocket 4.1 02:35:07 14° SSW 02:39:45 78° ESE 02:45:06 10° NNE
SAR-Lupe-1 4.1 02:36:11 10° SSE 02:39:46 79° ENE 02:43:23 10° NNW
Cosmos 2228 3.0 02:36:07 10° NNW 02:40:30 87° ENE 02:44:53 10° SSE
Meteor 1-16 Rocket 4.3 02:35:57 10° NNW 02:40:58 43° W 02:45:57 10° SSW
Cosmos 1689 Rocket 2.8 02:38:51 10° SSE 02:41:43 51° ENE 02:44:35 10° N
Cosmos 1606 Rocket 3.6 02:37:38 10° NNW 02:42:09 86° ENE 02:46:38 10° SSE
Cosmos 1674 2.5 02:41:37 30° SSW 02:43:23 78° WNW 02:47:13 10° N
Geosat 4.4 02:39:58 10° S 02:44:40 39° WSW 02:45:43 35° W
Cosmos 494 Rocket 4.0 02:42:47 31° SW 02:45:13 63° WNW 02:50:29 10° NNE
Cosmos 2279 Rocket 4.3 02:42:02 10° NNW 02:47:45 40° W 02:53:25 10° SSW
Cosmos 2082 Rocket 3.8 02:43:41 10° S 02:48:41 34° ESE 02:53:42 10° NE
Cosmos 1656 4.3 02:49:55 31° W 02:50:23 32° WSW 02:55:21 10° SSW
SL-16 R/B 3.0 02:45:29 10° NNW 02:51:02 50° NE 02:56:33 10° ESE
Cosmos 1626 2.5 02:49:11 10° S 02:52:50 63° E 02:56:31 10° NNE
COSMO-SKYMED 1 2.6 02:50:32 10° SSE 02:54:52 84° ENE 02:59:16 10° NNW
ADEOS Rocket 3.3 02:51:06 10° SSW 02:56:03 34° W 03:01:10 10° NNW
Cosmos 2333 Rocket 4.0 02:51:33 10° NNW 02:56:14 25° NNE 03:00:53 10° ENE
Meteor 2-5 Rocket 4.1 02:52:51 10° S 02:58:33 71° E 03:04:23 10° NNE
Cosmos 1707 4.2 03:03:25 21° NW 03:03:25 21° NW 03:05:38 10° N
Cosmos 2344 3.6 02:56:53 19° WSW 03:02:35 83° NW 03:11:28 10° NE
Meteor 1-31 Rocket 3.2 02:59:12 10° NNE 03:03:09 67° ESE 03:07:05 10° S
Lacrosse 5 rocket 3.3 03:00:54 10° SSW 03:03:51 23° SE 03:06:55 10° E
SJ-6F 4.3 03:02:20 10° NNE 03:06:26 72° WNW 03:10:31 10° SSW
COSMOS 2406 3.3 03:01:07 10° SSW 03:06:47 81° ESE 03:12:29 10° NE
Cosmos 2237 Rocket 4.1 03:03:37 10° NW 03:07:40 20° N 03:11:42 10° NE
Cosmos 1697 Rocket 3.1 03:03:55 16° NW 03:08:00 39° WSW 03:13:11 10° S
CREW DRAGON DEMO-1 DEB 4.1 03:11:10 25° SW 03:11:52 28° S 03:14:31 10° SE
Cosmos 2058 Rocket 3.1 03:07:21 10° NNW 03:11:55 87° E 03:16:25 10° SSE
deb Chang Zheng 4 3.5 03:08:08 10° NNE 03:12:25 88° ESE 03:16:41 10° SSW
Cosmos 220 Rocket 4.5 03:09:54 17° NW 03:12:57 40° WSW 03:17:04 10° S
CZ-4B R/B 4.0 03:08:56 10° NNE 03:13:18 83° ESE 03:17:26 10° SSW
Cosmos 1992 Rocket 4.2 03:08:36 10° NW 03:13:37 48° WSW 03:18:36 10° S
Cosmos 1536 Rocket 4.1 03:11:55 17° SW 03:15:02 39° WNW 03:19:17 10° N
Cosmos 1455 3.5 03:14:29 10° N 03:18:11 42° ENE 03:21:53 10° SE
Cosmos 2360 Rocket 3.3 03:13:00 10° NNW 03:18:21 42° NE 03:23:40 10° ESE
Cosmos 2026 Rocket 4.4 03:12:12 10° S 03:18:31 70° E 03:24:53 10° NNE
ARGOS Delta rocket 4.2 03:14:07 10° NNE 03:19:28 83° ESE 03:24:57 10° SSW
FENGYUN 3A 3.6 03:16:02 10° NNE 03:21:30 77° WNW 03:26:55 10° SSW
NOSS 3-2 (C) 3.5 03:21:46 12° WSW 03:27:20 82° NNW 03:34:24 10° NE
ADEOS II 4.0 03:26:37 10° NNW 03:28:23 12° NW 03:29:26 11° NW
Cosmos 1892 Rocket 3.6 03:25:11 10° S 03:29:32 81° E 03:33:57 10° NNE
Cosmos 1980 Rocket 2.5 03:24:34 10° NW 03:29:53 45° WSW 03:35:11 10° S
CZ-4B R/B 2.7 03:27:11 10° SW 03:29:56 22° W 03:30:17 21° W
Cosmos 1400 Rocket 3.0 03:26:16 10° NNW 03:30:08 47° W 03:33:54 10° S
H-2A R/B 4.5 03:27:53 10° NNE 03:32:00 35° E 03:35:59 10° SSE
SL-16 R/B 4.1 03:28:31 10° NW 03:32:28 19° N 03:36:24 10° NE
PSLV R/B 4.4 03:29:20 10° N 03:33:01 29° WNW 03:36:14 13° WSW
ARIANE 5 R/B 4.1 03:31:55 10° N 03:34:48 16° NW 03:36:09 14° WNW
SL-19 R/B 3.4 03:36:27 10° NNE 03:39:20 63° WNW 03:42:07 10° SSW
Cosmos 2251 Rocket 3.8 03:34:44 10° SSW 03:40:05 75° ESE 03:45:26 10° NNE
SJ-12 3.8 03:37:38 10° NNE 03:41:48 78° WNW 03:45:54 10° SSW
CENTAUR R/B 2.8 03:35:48 10° WSW 03:42:14 76° NNW 03:49:57 10° NE
SKYMED 2 4.0 03:39:02 10° SSW 03:43:06 39° W 03:47:13 10° NNW
MOS 1 Rocket 3.2 03:40:08 10° SSE 03:44:25 78° ENE 03:48:45 10° NNW
Okean O Rocket 4.1 03:40:45 10° NE 03:44:27 26° E 03:48:07 10° SSE
Cosmos 2219 Rocket 3.6 03:40:37 10° NNW 03:45:43 33° NE 03:50:48 10° E
CZ-2C R/B 3.7 03:41:00 10° SE 03:46:25 51° ENE 03:51:51 10° N
DMSP B5D1-3 4.5 03:44:27 10° SSE 03:49:33 76° WSW 03:54:42 10° NNW
DNEPR-1 R/B 3.9 03:46:03 10° NW 03:51:44 84° SW 03:56:23 10° SE
Cosmos 1461 3.6 03:48:05 10° SW 03:52:40 67° SE 03:57:25 10° NE
ALOS 2.7 03:50:14 10° N 03:54:38 41° WNW 03:59:00 10° SW
Cosmos 1626 Rocket 4.4 03:50:52 10° S 03:55:15 58° E 03:59:40 10° NNE
Cosmos 2278 4.5 03:51:01 10° NW 03:55:55 31° WSW 04:00:48 10° SSW
Cosmos 1812 Rocket 3.7 03:54:48 10° N 03:59:11 81° ENE 04:03:31 10° SSE
Cosmos 1315 Rocket 2.9 03:55:09 10° NNW 03:59:13 63° W 04:03:18 10° S
Aureole 3 4.1 03:55:52 10° NNW 03:59:16 34° W 04:03:24 10° SSW
Cosmos 192 4.4 03:54:41 10° NNW 03:59:42 87° WSW 04:04:40 10° SSE
Cosmos 1092 Rocket 4.1 03:53:49 10° SSW 03:59:53 57° WNW 04:06:05 10° N
SL-14 R/B 3.9 03:56:33 10° SW 04:00:16 36° WNW 04:04:03 10° N
Cosmos 2322 Rocket 2.2 03:54:57 10° NW 04:00:42 86° WSW 04:06:22 10° SSE
CZ-2C R/B 3.6 03:57:37 10° N 04:01:34 23° NW 04:05:26 10° WSW
Cosmos-2242 4.1 03:59:00 10° N 04:03:15 50° ENE 04:07:30 10° SSE
Cosmos 2237 4.5 03:58:02 10° NW 04:03:46 75° NE 04:09:28 10° SE
Cosmos 1300 4.0 04:01:17 10° NW 04:04:06 20° W 04:06:53 10° SW
ADEOS 4.0 03:59:33 10° N 04:04:25 39° WNW 04:09:15 10° SW
Nadezhda 4 Rocket 4.5 04:01:00 10° SW 04:06:37 37° WNW 04:12:18 10° N
Cosmos 2315 Rocket 4.5 04:04:01 10° N 04:10:15 68° ENE 04:16:30 10° SSE
ISS -1.8 04:09:21 10° SW 04:12:13 26° SSE 04:15:05 10° ESE
Cosmos 2098 Rocket 3.7 04:06:32 10° S 04:12:27 81° E 04:17:07 10° NNE
Lacrosse 4 Rocket 1.9 04:09:03 10° WSW 04:12:52 39° NW 04:16:45 10° NE
Cosmos 1689 Rocket 3.9 04:11:37 10° WSW 04:13:10 13° W 04:14:42 10° WNW
Cosmos 1484 Rocket 3.9 04:10:07 10° N 04:13:17 24° WNW 04:16:23 10° WSW
IDEFIX/ARIANE 42P 4.5 04:12:02 10° NNW 04:13:35 11° NW 04:15:10 10° NW
Cosmos 1833 Rocket 2.9 04:08:31 10° SW 04:14:04 55° NW 04:19:40 10° NNE
S3M 4.0 04:08:10 10° NNW 04:14:25 71° W 04:20:43 10° S
USA 238 DEB 4.0 04:07:53 10° W 04:14:33 57° NNW 04:21:36 10° ENE
USA 238 4.0 04:07:58 10° W 04:14:39 57° NNW 04:21:42 10° ENE
Cosmos 1655 Rocket 4.4 04:09:09 10° S 04:15:25 76° E 04:21:47 10° NNE
Cosmos 2322 4.5 04:10:37 10° NNW 04:16:12 52° NE 04:21:46 10° ESE
USA 290 2.3 04:13:07 10° SW 04:16:19 55° NW 04:19:32 10° NNE
CZ-4B R/B 4.3 04:11:09 10° NNE 04:16:25 50° E 04:21:35 10° S
NOSS 3-2 (A) 4.0 04:12:37 10° W 04:18:46 53° NNW 04:25:56 10° ENE
Meteor 1-24 Rocket 4.1 04:13:18 10° SW 04:18:46 46° WNW 04:24:27 10° N
Meteor 2-10 Rocket 3.8 04:14:34 10° NNW 04:19:18 43° W 04:24:04 10° SSW
Envisat 3.3 04:14:41 10° NNE 04:19:48 75° ESE 04:24:53 10° S
CZ-4B R/B 3.3 04:16:41 10° N 04:20:22 40° WNW 04:24:12 10° SW
USA 234 3.4 04:14:19 10° ESE 04:20:54 87° SSW 04:27:29 10° WNW
DMSP B5D2-2 4.5 04:15:48 10° SSE 04:21:04 72° ENE 04:26:21 10° NNW
Meteor 2-19 Rocket 4.4 04:16:22 10° SSW 04:22:29 81° WNW 04:28:36 10° NNE
